Newton, KS

6:40 AM CST on November 20, 2019 (GMT -0600)
Newton City County

Weather History for KEWK - August, 2019

Change the Weather History Date:

Saturday, August 17, 2019

  Actual Average Record
Temperature  
Mean Temperature 76 °F -  
Max Temperature 84 °F 87 °F 100 °F (2003)
Min Temperature 68 °F 64 °F 55 °F (2012)
Cooling Degree Days 11    
Growing Degree Days 26 (Base 50)    
Moisture  
Dew Point 70 °F    
Average Humidity 80    
Maximum Humidity 93    
Minimum Humidity 62    
Precipitation  
Precipitation 0.01 in - - ()
Sea Level Pressure  
Sea Level Pressure 29.78 in    
Wind  
Wind Speed 16 mph (SSE)    
Max Wind Speed 25 mph    
Max Gust Speed 51 mph    
Visibility 10 miles    
Events Rain , Thunderstorm    
Averages and records for this station are not official NWS values.
T = Trace of Precipitation, MM = Missing Value Source: NWS Daily Summary

Daily Weather History Graph

Daily Weather History Graph

Search for Another Location

Airport or City:

Astronomy

Aug. 17, 2019 Rise Set
Actual Time 6:45 AM CDT 8:20 PM CDT
Civil Twilight 6:17 AM CDT 8:47 PM CDT
Nautical Twilight 5:44 AM CDT 9:21 PM CDT
Astronomical Twilight 5:08 AM CDT 9:56 PM CDT
Moon 9:50 PM CDT (8/17) 8:34 AM CDT (8/17)
Length of Visible Light 14h 30m
Length of Day
13h 34m
Waning Gibbous, 96% of the Moon is Illuminated
Aug 17
Waning Gibbous
Aug 23
Last Quarter
Aug 30
New
Sep 5
First Quarter
Sep 13
Full

Hourly Weather History & Observations

Time (CDT) Temp. Heat Index Dew Point Humidity Pressure Visibility Wind Dir Wind Speed Gust Speed Precip Events Conditions
12:56 AM 81.0 °F 84.4 °F 70.0 °F 69% 29.69 in 10.0 mi South 18.4 mph 26.5 mph N/A   Unknown
1:56 AM 80.1 °F 82.9 °F 69.1 °F 69% 29.68 in 10.0 mi South 12.7 mph - N/A   Unknown
2:56 AM 77.0 °F - 69.1 °F 76% 29.76 in 10.0 mi NW 13.8 mph - N/A   Unknown
3:56 AM 75.0 °F - 70.0 °F 84% 29.81 in 10.0 mi North 9.2 mph - N/A   Unknown
4:56 AM 75.0 °F - 61.0 °F 62% 29.83 in 10.0 mi NNW 24.2 mph 29.9 mph N/A   Unknown
5:56 AM 72.0 °F - 64.0 °F 76% 29.86 in 10.0 mi NNE 12.7 mph - 0.00 in   Partly Cloudy
6:56 AM 69.1 °F - 66.0 °F 90% 29.86 in 10.0 mi ESE 11.5 mph - 0.01 in Rain Light Rain
7:04 AM 69.8 °F - 66.2 °F 88% 29.91 in 10.0 mi ESE 11.5 mph - 0.00 in Rain , Thunderstorm Light Thunderstorms and Rain
7:19 AM 69.8 °F - 66.2 °F 88% 29.92 in 10.0 mi ESE 15.0 mph - 0.00 in   Overcast
7:56 AM 68.0 °F - 66.0 °F 93% 29.80 in 10.0 mi SSE 19.6 mph 25.3 mph 0.00 in   Partly Cloudy
8:56 AM 69.1 °F - 66.0 °F 90% 29.81 in 10.0 mi SSE 21.9 mph 26.5 mph 0.00 in   Partly Cloudy
9:56 AM 72.0 °F - 66.9 °F 84% 29.81 in 10.0 mi ESE 13.8 mph 21.9 mph N/A   Clear
10:56 AM 73.9 °F - 66.9 °F 79% 29.82 in 10.0 mi SE 9.2 mph - N/A   Clear
11:56 AM 73.9 °F - 69.1 °F 85% 29.82 in 10.0 mi WNW 8.1 mph 28.8 mph N/A   Scattered Clouds
12:56 PM 75.9 °F - 69.1 °F 79% 29.77 in 10.0 mi SSE 18.4 mph - N/A   Clear
2:56 PM 82.9 °F 89.4 °F 73.9 °F 74% 29.75 in 10.0 mi South 21.9 mph 28.8 mph N/A   Clear
3:56 PM 84.9 °F 91.4 °F 73.0 °F 67% 29.73 in 10.0 mi South 20.7 mph 27.6 mph N/A   Clear
4:56 PM 84.0 °F 91.2 °F 73.9 °F 72% 29.72 in 10.0 mi South 21.9 mph - N/A   Clear
5:56 PM 84.9 °F 93.3 °F 75.0 °F 72% 29.72 in 10.0 mi South 19.6 mph 25.3 mph N/A   Clear
6:56 PM 84.0 °F 91.9 °F 75.0 °F 74% 29.71 in 10.0 mi SSE 16.1 mph - N/A   Clear
7:56 PM 82.0 °F 89.4 °F 75.9 °F 82% 29.71 in 10.0 mi SE 10.4 mph - N/A   Clear
8:56 PM 80.1 °F 85.4 °F 75.9 °F 87% 29.70 in 10.0 mi SE 12.7 mph - N/A   Clear
9:56 PM 79.0 °F - 75.9 °F 90% 29.71 in 10.0 mi SE 13.8 mph - N/A   Clear
10:56 PM 79.0 °F - 75.0 °F 88% 29.72 in 10.0 mi SSE 12.7 mph - N/A   Clear
11:56 PM 72.0 °F - 63.0 °F 73% 29.80 in 10.0 mi NW 25.3 mph 50.6 mph N/A Thunderstorm Squalls